Regional Weather Roundup
Issued by NWS

Home | Current Version | Previous Version | Graphics & Text | Print | Product List | Glossary On
Versions: 1 2 3 4 5 6 7 8 9 10 11 12 13 14 15 16 17 18 19 20 21 22 23 24 25 26 27 28 29 30 31 32 33 34 35 36 37 38 39 40 41 42 43 44 45 46 47 48 49 50
000
ASUS43 KLOT 181408
RWRIL

ILLINOIS REGIONAL WEATHER ROUNDUP
NATIONAL WEATHER SERVICE CHICAGO/ROMEOVILLE IL
800 AM CST SAT NOV 18 2017

NOTE: "FAIR" INDICATES FEW OR NO CLOUDS BELOW 12,000 FEET WITH NO
SIGNIFICANT WEATHER AND/OR OBSTRUCTIONS TO VISIBILITY.

* THESE STATIONS ARE NOT UNDER NWS QUALITY CONTROL. THEY ALSO MAY NOT
  REPORT WEATHER SUCH AS PRECIPITATION OR FOG.

ILZ001-002-007-009-015-016-024-181500-
NORTHWEST ILLINOIS

CITY           SKY/WX    TMP DP  RH WIND       PRES   REMARKS
MOLINE         LGT RAIN  41  37  86 N7G20     29.53R FOG
STERLING*      MIX PCPN N/A N/A N/A MISG        N/A
SAVANNA*       RAIN      38  37  92 N14G20    29.55R WCI  30
$$

ILZ003-004-008-010-011-017-018-181500-
NORTH CENTRAL ILLINOIS

CITY           SKY/WX    TMP DP  RH WIND       PRES   REMARKS
ROCKFORD       LGT RAIN  38  36  92 N16G26    29.55R WCI  29
FREEPORT*      LGT RAIN  37  36  96 N16       29.56S WCI  27
ROCHELLE*      LGT RAIN  38  38  98 N18G25    29.50F WCI  29
DE KALB*       LGT RAIN  39  39  98 N15G22    29.50R WCI  31
PERU*          RAIN      41  40  96 N17G23    29.45F
$$

ILZ005-006-012>014-019>023-181500-
NORTHEAST ILLINOIS

CITY           SKY/WX    TMP DP  RH WIND       PRES   REMARKS
CHICAGO-OHARE  LGT RAIN  43  39  86 N16       29.47R
CHICAGO-MIDWAY LGT RAIN  44  43  96 NE14      29.46S
AURORA         CLOUDY    42  41  96 N10       29.49R
LANSING*       HVY RAIN  45  45 100 NE6       29.46S
JOLIET*        HVY RAIN  45  44  97 N12       29.44S
WAUKEGAN       CLOUDY    40  39  97 N8G17     29.49F FOG
DUPAGE AIRPORT LGT RAIN  41  40  96 NE15G22   29.48R FOG
KANKAKEE*      LGT RAIN  47  46  99 NE12G17   29.39F
WHEELING       LGT RAIN  42  41  96 N10       29.50S
MORRIS*        HVY RAIN  44  43  97 NE9G16    29.41F
ROMEOVILLE*    LGT RAIN  42  41  96 NE16      29.45S VSB 1
NORTHERLY ISL    N/A     43  41  93 N12         N/A
$$

LMZ740>746-181500-
SOUTHERN LAKE MICHIGAN

STATION/POSITION SKY/WX   TEMP    WIND        PRES    VSBY  WAVE
                          AIR SEA DIR/SP/G                  HT/PER
                          (F)     (DEG/KT/KT) (MB)    (MI)  (FT/S)
SOUTHERN BUOY              44 49   30/ 16/ 19  998.5          2/ 4
HARRISON CRIB              45      30/ 18/ 19   N/A
BURNHAM HARBOR             44      30/ 11/ 15   N/A
BURNS HARBOR               47      30/ 15/ 18  997.6F
MICHIGAN CITY              45      40/  5/  5   N/A
$$

ILZ025>027-034>036-040-047-049-050-058-095>099-181500-
WEST-CENTRAL ILLINOIS

CITY           SKY/WX    TMP DP  RH WIND       PRES   REMARKS
QUINCY         LGT RAIN  44  43  96 N24G30    29.46R FOG
GALESBURG*     RAIN      41  41 100 N23G31    29.48R
MACOMB*        LGT SNOW  42  42  99 N31G39    29.43F
JACKSONVILLE*  CLOUDY    51  50  96 N21G29    29.33R
PITTSFIELD*    LGT RAIN  52  51  94 NW18G32   29.43R
$$

ILZ028>032-037-038-041>044-048-051>054-059>061-181500-
CENTRAL ILLINOIS

CITY           SKY/WX    TMP DP  RH WIND       PRES   REMARKS
PONTIAC        CLOUDY    48  47  98 N14       29.38R FOG
BLOOMINGTON    TSTM      48  47  96 N14       29.38R FOG
DECATUR        CLOUDY    63  59  87 S21G31    29.30F
PEORIA         RAIN      47  46  97 N8G21     29.42R FOG
LACON*         RAIN      42  42 100 N13G20    29.44R
LINCOLN*       LGT RAIN  54  54 100 NE10      29.30R
SPRINGFIELD    CLOUDY    59  58  96 NW3       29.29F FOG
TAYLORVILLE    CLOUDY    62  60  92 S20G28    29.30F
$$

ILZ033-039-045-046-055>057-062-063-181500-
EAST-CENTRAL ILLINOIS

CITY           SKY/WX    TMP DP  RH WIND       PRES   REMARKS
CHAMPAIGN      CLOUDY    59  58  96 S13       29.31F
DANVILLE*      RAIN      57  56  96 S8        29.32F
RANTOUL*       LGT RAIN  54  54  99 NE8       29.33F
MATTOON        CLOUDY    62  58  86 S17G25    29.33F
PARIS*         CLOUDY    61  58  91 S23G31    29.35F
$$

ILZ079-100>102-181500-
SOUTHWEST ILLINOIS

CITY           SKY/WX    TMP DP  RH WIND       PRES   REMARKS
ALTON          CLOUDY    63  61  94 S14G21    29.33F
BELLEVILLE     MOSUNNY   65  61  85 S15G26    29.35F
CAHOKIA*       CLOUDY    68  62  81 S13G21    29.34F
SPARTA*        PTSUNNY   64  62  93 S20G30    29.41F
$$

ILZ064>066-069>071-074>076-080>082-084>086-088>090-092>094-181500-
SOUTH-CENTRAL ILLINOIS

CITY           SKY/WX    TMP DP  RH WIND       PRES   REMARKS
CARBONDALE     LGT RAIN  66  63  90 S21G30    29.48R
CAIRO*         CLOUDY    67  61  81 S20G28    29.55R
EFFINGHAM*     CLOUDY    66  62  86 S14G25    29.38F
MARION         CLOUDY    66  66 100 SW20G26   29.52S
MT. VERNON     LGT RAIN  64  62  93 S23G32    29.42F
CENTRALIA*     CLOUDY    66  63  91 S23G35    29.37F
SALEM*         CLOUDY    67  62  83 S20G32    29.38F
METROPOLIS*    LGT RAIN  65  61  85 S10G16    29.58R
$$

ILZ067-068-072-073-078-083-087-091-181500-
SOUTHEAST ILLINOIS

CITY           SKY/WX    TMP DP  RH WIND       PRES   REMARKS
LAWRENCEVILLE  CLOUDY    64  58  80 S22       29.44F
FLORA*         CLOUDY    66  61  84 S24G30    29.39F
FAIRFIELD*     LGT RAIN  64  61  92 S15       29.44F
HARRISBURG*    PTSUNNY   65  62  90 S17G23    29.51F
ROBINSON*      CLOUDY    61  58  90 S21G26    29.42F
CARMI*         DRIZZLE   63  60  91 S21G30    29.50R
$$

ABBREVIATIONS USED IN REMARKS
   TC - TEMPERATURE IN CELSIUS
  WCI - WIND CHILL INDEX
   HX - HEAT INDEX
  VSB - VISIBILITY
$$





USA.gov is the U.S. government's official web portal to all federal, state and local government web resources and services.